• In Hungary
  • List of Countries
  • For 7 days
  • Water Temperature
  • Satellite Maps
  • Weather Map
  • News
  • Weather Widgets
  • user-avatar
    Login

    Hourly Weather Ropianka

    Today, 21 September, Friday

    Time Temperature Precipitation Wind Pressure Humidity
    00:00 +15°C° 0 mm 1 mps 722 mmHg 75%
    01:00 +15°C° 0 mm 1 mps 722 mmHg 76%
    02:00 +14°C° 0 mm 1 mps 722 mmHg 77%
    03:00 +14°C° 0 mm 1 mps 722 mmHg 78%
    04:00 +14°C° 0 mm 1 mps 722 mmHg 79%
    05:00 +15°C° 0 mm 1 mps 722 mmHg 77%
    06:00 +16°C° 0 mm 1 mps 722 mmHg 75%
    07:00 +16°C° 0 mm 1 mps 722 mmHg 72%
    08:00 +19°C° 0 mm 2 mps 722 mmHg 65%
    09:00 +21°C° 0 mm 3 mps 722 mmHg 58%
    10:00 +24°C° 0 mm 3 mps 722 mmHg 51%
    11:00 +25°C° 0 mm 4 mps 721 mmHg 48%
    12:00 +25°C° 0 mm 4 mps 721 mmHg 46%
    13:00 +26°C° 0 mm 4 mps 721 mmHg 44%
    14:00 +26°C° 0 mm 4 mps 720 mmHg 47%
    15:00 +25°C° 0 mm 3 mps 720 mmHg 50%
    16:00 +24°C° 0 mm 3 mps 720 mmHg 53%
    17:00 +21°C° 0 mm 3 mps 719 mmHg 57%
    18:00 +19°C° 0 mm 3 mps 719 mmHg 62%
    19:00 +18°C° 0 mm 3 mps 719 mmHg 67%
    20:00 +17°C° 0 mm 3 mps 719 mmHg 67%
    21:00 +17°C° 0 mm 3 mps 719 mmHg 66%
    22:00 +16°C° 0 mm 3 mps 719 mmHg 66%
    23:00 +16°C° 0 mm 3 mps 719 mmHg 63%

    Tomorrow, 22 September, Saturday

    Time Temperature Precipitation Wind Pressure Humidity
    00:00 +16°C° 0 mm 3 mps 719 mmHg 61%
    01:00 +16°C° 0 mm 3 mps 719 mmHg 59%
    02:00 +16°C° 0 mm 3 mps 719 mmHg 61%
    03:00 +16°C° 0 mm 3 mps 719 mmHg 63%
    04:00 +15°C° 0 mm 4 mps 720 mmHg 65%
    05:00 +14°C° 0.3 mm 3 mps 720 mmHg 72%
    06:00 +13°C° 0.3 mm 3 mps 721 mmHg 80%
    07:00 +12°C° 0.3 mm 3 mps 721 mmHg 87%
    08:00 +11°C° 0.9 mm 3 mps 721 mmHg 88%
    09:00 +12°C° 0.9 mm 2 mps 722 mmHg 89%
    10:00 +10°C° 0.9 mm 2 mps 722 mmHg 90%
    11:00 +10°C° 1.4 mm 2 mps 722 mmHg 90%
    12:00 +11°C° 1.4 mm 1 mps 722 mmHg 89%
    13:00 +11°C° 1.4 mm 1 mps 722 mmHg 88%
    14:00 +11°C° 0.1 mm 1 mps 722 mmHg 85%
    15:00 +12°C° 0.1 mm 1 mps 722 mmHg 83%
    16:00 +12°C° 0.1 mm 1 mps 722 mmHg 80%
    17:00 +11°C° 0 mm 1 mps 722 mmHg 83%
    18:00 +10°C° 0 mm 1 mps 722 mmHg 86%
    19:00 +8°C° 0 mm 2 mps 722 mmHg 88%
    20:00 +8°C° 0 mm 2 mps 723 mmHg 87%
    21:00 +8°C° 0 mm 2 mps 723 mmHg 86%
    22:00 +8°C° 0 mm 2 mps 723 mmHg 84%
    23:00 +8°C° 0 mm 2 mps 723 mmHg 85%

    Day after tomorrow, 23 September, Sunday

    Time Temperature Precipitation Wind Pressure Humidity
    00:00 +7°C° 0 mm 2 mps 723 mmHg 85%
    01:00 +7°C° 0 mm 2 mps 723 mmHg 85%
    02:00 +7°C° 0 mm 2 mps 723 mmHg 86%
    03:00 +7°C° 0 mm 2 mps 723 mmHg 86%
    04:00 +6°C° 0 mm 2 mps 723 mmHg 87%
    05:00 +7°C° 0 mm 2 mps 723 mmHg 85%
    06:00 +8°C° 0 mm 2 mps 723 mmHg 83%
    07:00 +8°C° 0 mm 2 mps 723 mmHg 82%
    08:00 +10°C° 0 mm 2 mps 724 mmHg 75%
    09:00 +12°C° 0 mm 3 mps 724 mmHg 68%
    10:00 +13°C° 0 mm 3 mps 724 mmHg 61%
    11:00 +14°C° 0 mm 3 mps 723 mmHg 60%
    12:00 +14°C° 0 mm 3 mps 723 mmHg 59%
    13:00 +14°C° 0 mm 3 mps 723 mmHg 58%
    14:00 +14°C° 0 mm 3 mps 722 mmHg 59%
    15:00 +14°C° 0 mm 3 mps 722 mmHg 60%
    16:00 +15°C° 0 mm 2 mps 722 mmHg 61%
    17:00 +14°C° 0 mm 2 mps 721 mmHg 64%
    18:00 +13°C° 0 mm 2 mps 721 mmHg 67%
    19:00 +12°C° 0 mm 2 mps 720 mmHg 71%
    20:00 +11°C° 0 mm 3 mps 720 mmHg 72%
    21:00 +11°C° 0 mm 4 mps 719 mmHg 73%
    22:00 +11°C° 0 mm 4 mps 718 mmHg 74%
    23:00 +12°C° 0 mm 5 mps 717 mmHg 72%

    24 September, Monday

    Time Temperature Precipitation Wind Pressure Humidity
    00:00 +11°C° 0 mm 6 mps 716 mmHg 70%
    01:00 +11°C° 0 mm 7 mps 715 mmHg 69%
    02:00 +11°C° 0.5 mm 7 mps 714 mmHg 70%
    03:00 +11°C° 0.5 mm 8 mps 712 mmHg 71%
    04:00 +11°C° 0.5 mm 8 mps 711 mmHg 72%
    05:00 +11°C° 2.5 mm 8 mps 710 mmHg 77%
    06:00 +11°C° 2.5 mm 8 mps 710 mmHg 82%
    07:00 +11°C° 2.5 mm 8 mps 709 mmHg 87%
    08:00 +11°C° 0.9 mm 9 mps 710 mmHg 84%
    09:00 +9°C° 0.9 mm 10 mps 710 mmHg 81%
    10:00 +9°C° 0.9 mm 11 mps 711 mmHg 78%
    11:00 +9°C° 0.1 mm 11 mps 713 mmHg 74%
    12:00 +8°C° 0.1 mm 10 mps 715 mmHg 70%
    13:00 +8°C° 0.1 mm 10 mps 716 mmHg 67%
    14:00 +8°C° 0.1 mm 9 mps 717 mmHg 66%
    15:00 +9°C° 0.1 mm 8 mps 718 mmHg 66%
    16:00 +9°C° 0.1 mm 6 mps 719 mmHg 66%
    17:00 +8°C° 0.1 mm 6 mps 720 mmHg 68%
    18:00 +7°C° 0.1 mm 6 mps 721 mmHg 71%
    19:00 +5°C° 0.1 mm 6 mps 721 mmHg 73%
    20:00 +6°C° 0 mm 5 mps 722 mmHg 75%
    21:00 +5°C° 0 mm 5 mps 723 mmHg 76%
    22:00 +5°C° 0 mm 4 mps 723 mmHg 77%
    23:00 +4°C° 0 mm 4 mps 724 mmHg 80%

    25 September, Tuesday

    Time Temperature Precipitation Wind Pressure Humidity
    00:00 +4°C° 0 mm 4 mps 724 mmHg 82%
    01:00 +4°C° 0 mm 3 mps 724 mmHg 84%
    02:00 +3°C° 0 mm 3 mps 725 mmHg 85%
    03:00 +3°C° 0 mm 3 mps 725 mmHg 85%
    04:00 +2°C° 0 mm 3 mps 726 mmHg 86%
    05:00 +3°C° 0 mm 4 mps 726 mmHg 83%
    06:00 +3°C° 0 mm 4 mps 727 mmHg 81%
    07:00 +3°C° 0 mm 5 mps 727 mmHg 78%
    08:00 +4°C° 0 mm 6 mps 728 mmHg 70%
    09:00 +7°C° 0 mm 6 mps 728 mmHg 62%
    10:00 +8°C° 0 mm 7 mps 729 mmHg 53%
    11:00 +8°C° 0.1 mm 7 mps 729 mmHg 54%
    12:00 +8°C° 0.1 mm 6 mps 729 mmHg 55%
    13:00 +9°C° 0.1 mm 6 mps 729 mmHg 55%
    14:00 +8°C° 0.2 mm 6 mps 729 mmHg 58%
    15:00 +8°C° 0.2 mm 5 mps 730 mmHg 60%
    16:00 +8°C° 0.2 mm 5 mps 730 mmHg 63%
    17:00 +6°C° 0 mm 4 mps 730 mmHg 68%
    18:00 +5°C° 0 mm 3 mps 730 mmHg 73%
    19:00 +4°C° 0 mm 2 mps 731 mmHg 78%
    20:00 +4°C° 0 mm 2 mps 731 mmHg 78%
    21:00 +3°C° 0 mm 2 mps 731 mmHg 78%
    22:00 +3°C° 0 mm 2 mps 731 mmHg 78%
    23:00 +3°C° 0 mm 2 mps 731 mmHg 78%

    26 September, Wednesday

    Time Temperature Precipitation Wind Pressure Humidity
    00:00 +3°C° 0 mm 2 mps 730 mmHg 77%
    01:00 +2°C° 0 mm 3 mps 730 mmHg 77%
    02:00 +2°C° 0 mm 3 mps 730 mmHg 75%
    03:00 +3°C° 0 mm 4 mps 729 mmHg 73%
    04:00 +3°C° 0 mm 4 mps 729 mmHg 71%
    05:00 +2°C° 0.7 mm 5 mps 729 mmHg 76%
    06:00 +3°C° 0.7 mm 5 mps 728 mmHg 81%
    07:00 +3°C° 0.7 mm 5 mps 728 mmHg 86%
    08:00 +5°C° 0.8 mm 5 mps 728 mmHg 86%
    09:00 +5°C° 0.8 mm 5 mps 729 mmHg 87%
    10:00 +6°C° 0.8 mm 5 mps 729 mmHg 88%
    11:00 +7°C° 0.3 mm 5 mps 729 mmHg 83%
    12:00 +8°C° 0.3 mm 5 mps 729 mmHg 79%
    13:00 +9°C° 0.3 mm 5 mps 729 mmHg 74%
    14:00 +9°C° 0.1 mm 5 mps 730 mmHg 73%
    15:00 +10°C° 0.1 mm 4 mps 730 mmHg 71%
    16:00 +10°C° 0.1 mm 4 mps 730 mmHg 70%
    17:00 +8°C° 0 mm 3 mps 730 mmHg 76%
    18:00 +7°C° 0 mm 2 mps 730 mmHg 83%
    19:00 +6°C° 0 mm 1 mps 731 mmHg 89%
    20:00 +6°C° 0 mm 1 mps 731 mmHg 91%
    21:00 +6°C° 0 mm 1 mps 731 mmHg 92%
    22:00 +6°C° 0 mm 1 mps 731 mmHg 94%
    23:00 +6°C° 0 mm 1 mps 731 mmHg 94%
    Show more